DELTA 1 R/B(1)

Satellite information

Favourite Embed

Satellite Type and Status

ROCKET BODYIN ORBIT

Key statistics

Satellite DELTA 1 R/B(1) at a glance.

Uptime

14876

Days in orbit

Revolutions

≈ 10.8

Per day

Orbit

MEO

Medium Earth Orbit

Inclination

28.9

Latest

Satellite identification and parameters

Extended collection of information and parameters for DELTA 1 R/B(1).

Object identification

Identified? True

Debris? False

Object name: DELTA 1 R/B(1)

International designator: 1984-088D

Object number (NORAD): 15202

Object ID (CCSDS): 15202

Country: UNITED STATES OF AMERICA (US)

Current information (Y/N): Y

RCS size: LARGE

Orbital parameters

Period: 133.086 minutes

Inclination: 28.9072 deg

SMA: 8634.724 km

Apoapsis: 3969.213 km

Periapsis: 543.965 km

RAAN: 159.701 deg

Eccentricy: 0.1983415

Argument of periapsis: 209.1287 deg

Mean anomaly: 138.2616 deg

Mean motion: 10.82007087 rev/day

Mean motion (dot): 0.00000459 rev/day2

B* drag term: 0.00024416 1/REarth

Two-line elements (TLE)

Creation date: May 9, 2025, 2:46 a.m.

Reference frame: TEME

Reference center: EARTH

Epoch: May 8, 2025, 8:20 a.m. UTC

TLE line 0: 0 DELTA 1 R/B(1)

TLE line 1: 1 15202U 84088D 25128.34782028 .00000459 00000-0 24416-3 0 9998

TLE line 2: 2 15202 28.9072 159.7010 1983415 209.1287 138.2616 10.82007087606016

Live tracking on map

Real-time ground track for satellite DELTA 1 R/B(1).

In-orbit conjunctions

A list of the most updated potential collisions computed for object DELTA 1 R/B(1).

Target Orbit TCA Probability of collision Miss distance Type
FENGYUN 1C DEB SSO 2024-07-11 12:23:33 0.0004407212 187.0 (m) DEBRIS

Associated space launch

Joint US-German-UK astrophysics research satellite

DELTA 1 R/B(1) was lifted into orbit during the mission ‘Delta 3924 | Charge Composition Explorer’, on board a Delta 3924 space rocket.

The launch took place on Aug. 16, 1984, 2:48 p.m. from Space Launch Complex 17A.

For more information about the launch, click the button.

Launch to space Delta 3924 | Charge Composition Explorer
Delta 3924 | Charge Composition Explorer

Agency: N/A

Status: Launch Successful

Launch date: Aug. 16, 1984, 2:48 p.m. UTC

Rocket: Delta 3924

Launch pad: Space Launch Complex 17A

Location: Cape Canaveral SFS, FL, USA

...

Latest news about this satellite

There are no fresh news available about this satellite. Check back as we update our databases every day.


Newsletter sign-up

Weekly statistics, charts and insights to help you stay on top of the space industry.